TIANWANG 1B (TW-1B)
1 40927U 15051C   19331.53419823  .00016155  00000-0  22130-3 0  9995
2 40927  97.1190  16.6845 0008714 131.7957   8.7945 15.57419555235172
TIANWANG 1A (TW-1A)
1 40928U 15051D   19331.35607703  .00003475  00000-0  84507-4 0  9990
2 40928  97.1311 359.0256 0010206 197.1756 220.1979 15.41587606234071
LAPAN A2
1 40931U 15052B   19324.69785557 -.00020420  00000-0 -29507-2 0  9996
2 40931   5.9963  31.2247 0013118 192.9224 166.9491 14.76583141224210
LQSAT
1 40958U 15057A   19330.95534789  .00000027  00000-0  11730-4 0  9995
2 40958  97.8816  35.6434 0019560  84.6409 275.7030 14.73097765222542
CHUBUSAT 2
1 41338U 16012B   19331.30927488  .00000328  00000-0  18729-4 0  9991
2 41338  31.0022 197.6292 0013976 264.2040  95.7002 15.00213702207204
CHUBUSAT 3
1 41339U 16012C   19331.32660494  .00000304  00000-0  16829-4 0  9998
2 41339  31.0117 195.4062 0014008 272.2560  87.6460 15.00384421207209
OUFTI-1
1 41458U 16025C   19331.50992143  .00001904  00000-0  99389-4 0  9992
2 41458  98.1003  66.5965 0165642 172.4258 187.9530 15.06242188196922
E-STAR-2
1 41459U 16025D   19331.49972771  .00002185  00000-0  11412-3 0  9998
2 41459  98.0997  66.1481 0167030 174.0711 186.2553 15.05848931196898
AAUSAT 4
1 41460U 16025E   19331.53197512  .00004508  00000-0  22434-3 0  9994
2 41460  98.0998  67.8588 0157412 165.1198 195.4695 15.07920787197050
NUSAT 1
1 41557U 16033B   19331.53741961  .00001369  00000-0  53407-4 0  9990
2 41557  97.4134  58.0820 0015370  86.8359 273.4638 15.27561673194796
BEESAT 4
1 41619U 16040W   19331.11191083  .00001608  00000-0  70227-4 0  9990
2 41619  97.3488  30.1846 0011584 167.8699 192.2820 15.23495344178436
PRATHAM
1 41783U 16059A   19331.14401275  .00000084  00000-0  25457-4 0  9994
2 41783  98.0476  26.9870 0032530 234.8353 124.9801 14.63023009169157
ALSAT 1N
1 41789U 16059G   19331.40471698  .00000078  00000-0  23704-4 0  9991
2 41789  98.0506  29.5951 0027612 222.2440 137.6636 14.64278816169313
NAYIF 1
1 42017U 17008BX  19330.64518079 +.00001706 +00000-0 +69304-4 0  9996
2 42017 097.3863 035.9566 0005310 336.0702 024.0289 15.25928301154467
MAX VALIER SAT
1 42778U 17036P   19331.11704339  .00001023  00000-0  47353-4 0  9992
2 42778  97.3349  25.0654 0012794  25.1277 335.0580 15.22271325134792
